SIRIUS 1 1 26390U 00035A 12034.50082309 .00000117 00000-0 00000+0 0 9803 2 26390 060.6558 247.7449 2677279 270.3470 059.4846 01.00276605 42483 SIRIUS 2 1 26483U 00051A 12036.16205787 .00000007 00000-0 10000-3 0 6120 2 26483 063.9229 127.4463 2675811 269.9137 059.8102 01.00282433 41834 SIRIUS 3 1 26626U 00077A 12036.82681185 -.00000095 00000-0 00000+0 0 8877 2 26626 064.2215 007.5381 2691734 269.6828 059.7712 01.00276997 40973 XM-2 1 26724U 01012A 12037.36128300 -.00000024 00000-0 10000-3 0 1534 2 26724 000.0708 285.3737 0003723 030.5145 194.7979 01.00272498 39962 XM-1 1 26761U 01018A 12036.53987556 -.00000023 00000-0 10000-3 0 9666 2 26761 000.0750 247.0089 0003683 341.7688 345.4085 01.00272219 39424 XM-3 1 28626U 05008A 12037.14364332 -.00000206 00000-0 10000-3 0 1069 2 28626 000.0046 350.6581 0000267 309.0555 162.5590 01.00271209 25474 XM-4 1 29520U 06049A 12036.53987377 -.00000023 00000-0 10000-3 0 8302 2 29520 000.0151 282.3056 0000428 349.1735 302.7011 01.00273352 19400